Regional Weather Roundup
Issued by NWS

Home | Current Version | Previous Version | Graphics & Text | Print | Product List | Glossary Off
Versions: 1 2 3 4 5 6 7 8 9 10 11 12 13 14 15 16 17 18 19 20 21 22 23 24 25 26 27 28 29 30 31 32 33 34 35 36 37 38 39 40 41 42 43 44 45 46 47 48 49 50

000
ASUS43 KMPX 020010
RWRMN
WEATHER ROUNDUP FOR MINNESOTA
NATIONAL WEATHER SERVICE TWIN CITIES/CHANHASSEN MN
700 PM CDT SAT AUG 01 2015


NOTE: "FAIR" INDICATES FEW OR NO CLOUDS BELOW 12,000 FEET WITH NO
SIGNIFICANT WEATHER AND/OR OBSTRUCTIONS TO VISIBILITY. N/A MEANS
CURRENT SKY AND/OR WEATHER CONDITIONS ARE NOT AVAILABLE.

MNZ060>063-068>070-020100-
   Twin Cities Metro

CITY           SKY/WX    TMP DP  RH WIND       PRES   REMARKS
TWIN CITIES    MOSUNNY   85  64  49 SW9       29.80F
6HR MIN TEMP:  82; 6HR MAX TEMP:  86;

ST PAUL        MOSUNNY   84  63  49 S9        29.80F
CRYSTAL        MOSUNNY   85  64  49 SW13      29.79F
BLAINE         MOSUNNY   84  64  51 S7        29.80F
LAKEVILLE      SUNNY     81  68  65 S6        29.82F
EDEN PRAIRIE   SUNNY     83  67  58 S9        29.80F
6HR MIN TEMP:  82; 6HR MAX TEMP:  86;

SOUTH ST PAUL  MOSUNNY   84  64  50 S7        29.80F
LAKE ELMO      FAIR      81  66  61 S6        29.82F
$$
MNZ001>005-007-008-013>017-022>024-027-028-020100-
   Northwest Minnesota

CITY           SKY/WX    TMP DP  RH WIND       PRES   REMARKS
BEMIDJI        MOSUNNY   79  57  45 SW7       29.77F
HALLOCK        PTSUNNY   82  57  42 SW8       29.70F
ROSEAU         MOSUNNY   79  63  57 SW7       29.72F
WARROAD        MOSUNNY   79  63  57 W8        29.72F
THIEF RVR FALL SUNNY     81  63  54 SW7       29.75F
CROOKSTON      SUNNY     82  61  47 SW7       29.74F
FOSSTON        SUNNY     82  61  47 SW6       29.77F
DETROIT LAKES  SUNNY     82  59  44 SW9       29.79F
MOORHEAD       SUNNY     82  64  54 SE3       29.75F
PARK RAPIDS    SUNNY     82  57  42 S8        29.78F
MAHNOMEN       FAIR      80  63  55 CALM      29.77F
$$
MNZ006-009>011-018-025>026-020100-
   North Central Minnesota

CITY           SKY/WX    TMP DP  RH WIND       PRES   REMARKS
BAUDETTE       MOSUNNY   78  56  46 W8        29.72F
FLAG ISLAND    MOSUNNY   79  54  41 W13G22    29.69S
INTL FALLS     MOSUNNY   77  54  44 W9        29.71F
6HR MIN TEMP:  77; 6HR MAX TEMP:  81;

WASKISH        PTSUNNY   73  63  68 SW5       29.74F
BIG FORK       MOSUNNY   79  55  44 SW7       29.76F
LONGVILLE      SUNNY     81  55  41 SW6       29.78F
GRAND RAPIDS   PTSUNNY   79  54  41 SW3       29.79F
CRANE LAKE     SUNNY     75  46  35 W6        29.74F
ORR            MOSUNNY   75  48  38 CALM      29.72F
COOK           MOSUNNY   75  52  43 SW6       29.76F
WALKER         FAIR      79  57  47 SW5       29.77F
$$
MNZ012-019>021-037-020100-
   Northeast Minnesota

CITY           SKY/WX    TMP DP  RH WIND       PRES   REMARKS
DULUTH         MOSUNNY   78  54  43 W10       29.79F
6HR MIN TEMP:  77; 6HR MAX TEMP:  82;

ELY            SUNNY     75  48  38 W9        29.75F
HIBBING        SUNNY     79  51  37 SW9       29.77F
EVELETH        SUNNY     77  48  36 W9        29.78F
DULUTH HARBOR  MOSUNNY   81  57  44 SW13      29.76F
TWO HARBORS    SUNNY     81  61  50 SW9       29.74F
SILVER BAY     SUNNY     81  50  34 SW7       29.73F
GRAND MARAIS     N/A     53  45  74 W8        29.71F
G MARAIS ARPRT MOSUNNY   72  46  40 SW3       29.77F
$$
MNZ029>031-032-039>041-046>048-054>057-064-020100-
   West Central Minnesota

CITY           SKY/WX    TMP DP  RH WIND       PRES   REMARKS
FERGUS FALLS   SUNNY     82  68  61 S7        29.74F
WHEATON        MOSUNNY   84  70  61 CALM      29.75F
MORRIS         SUNNY     82  68  61 S7        29.76F
ALEXANDRIA     SUNNY     82  69  64 S9        29.80F
ELBOW LAKE     FAIR      83  71  67 SE9       29.76F
WADENA         MOSUNNY   81  61  50 S7        29.78F
GLENWOOD       SUNNY     82  72  69 S9        29.80F
APPLETON       SUNNY     86  64  48 SW12      29.76F
BENSON         SUNNY     84  66  54 SW5       29.77F
ORTONVILLE     SUNNY     84  63  48 SW7       29.76F
MADISON        SUNNY     82  64  54 SW5       29.78F
WILLMAR        FAIR      82  68  61 SW5       29.80F
$$
MNZ033>034-036-042>043-049>051-058-059-020100-
   Central Minnesota

CITY           SKY/WX    TMP DP  RH WIND       PRES   REMARKS
ST CLOUD       SUNNY     82  65  56 S12       29.79F
6HR MIN TEMP:  81; 6HR MAX TEMP:  85;

SAUK CENTRE    FAIR      81  69  67 S8        29.80F
PAYNESVILLE    SUNNY     79  68  69 SE3       29.81F
AITKIN         SUNNY     81  61  50 S6        29.78F
PINE RIVER     MOSUNNY   81  59  47 S5        29.82F
BRAINERD       MOSUNNY   79  57  46 S9        29.80F
STAPLES        MOSUNNY   81  61  50 S6        29.79F
LONG PRAIRIE   FAIR      81  64  57 S6        29.81F
LITTLE FALLS   SUNNY     81  61  50 S5        29.80F
LITCHFIELD     SUNNY     84  66  54 SW5       29.79F
BUFFALO        SUNNY     82  65  57 S7        29.81F
MAPLE LAKE     SUNNY     81  70  69 S7        29.81F
$$
MNZ037-044-045-052-053-020100-
   East Central Minnesota

CITY           SKY/WX    TMP DP  RH WIND       PRES   REMARKS
PRINCETON      MOSUNNY   82  64  54 S7        29.79F
MORA           MOSUNNY   77  57  50 S3        29.82F
CAMBRIDGE      MOSUNNY   82  64  54 S5        29.78F
RUSH CITY      SUNNY     79  59  49 S5        29.80F
MOOSE LAKE     MOSUNNY   79  59  50 SW5       29.79F
HINCKLEY       FAIR      79  61  53 SW5       29.80F
CLOQUET        MOSUNNY   79  52  38 SW9       29.80F
MCGREGOR       SUNNY     79  55  44 SW9       29.80F
$$
MNZ071>073-080-081-089-090-097-098-020100-
   Southwest Minnesota

CITY           SKY/WX    TMP DP  RH WIND       PRES   REMARKS
MONTEVIDEO     SUNNY     88  66  48 W8        29.80F HX  90
GRANITE FALLS  SUNNY     83  65  55 SW8       29.81F
CANBY          SUNNY     84  61  45 SW7       29.80F
MARSHALL       SUNNY     84  63  48 SW10      29.83F
REDWOOD FALLS  SUNNY     85  66  53 S10       29.80F
OLIVIA         SUNNY     81  63  54 SW9       29.80F
PIPESTONE      SUNNY     81  64  57 SW9       29.86F
WINDOM         SUNNY     82  63  51 SW10      29.85S
WORTHINGTON    SUNNY     81  63  54 SW9G20    29.87F
JACKSON        SUNNY     82  63  51 SW10      29.87F
TRACY          SUNNY     82  66  57 SW5       29.84S
SLAYTON        SUNNY     82  63  52 SW6       29.86F
$$
MNZ065>067-074>077-082>085-091>093-020100-
   South Central Minnesota

CITY           SKY/WX    TMP DP  RH WIND       PRES   REMARKS
MANKATO        SUNNY     82  64  54 SW10      29.83F
NEW ULM        SUNNY     82  64  54 SW7       29.82F
ST JAMES       SUNNY     84  70  61 S7        29.84F
FAIRMONT       SUNNY     82  61  47 S9G16     29.85F
GLENCOE        SUNNY     85  72  65 S7        29.80F HX  91
FARIBAULT      SUNNY     82  70  65 S6        29.84F
OWATONNA       SUNNY     82  66  57 S7        29.84F
WASECA         SUNNY     81  64  57 S7        29.86F
ALBERT LEA     SUNNY     82  64  54 SW5       29.86F
$$
MNZ078>079-086>088-094>096-020100-
   Southeast Minnesota

CITY           SKY/WX    TMP DP  RH WIND       PRES   REMARKS
ROCHESTER      SUNNY     80  69  69 SW7       29.88F
6HR MIN TEMP:  78; 6HR MAX TEMP:  82;

RED WING       MOSUNNY   84  64  51 S6        29.81F
STANTON        SUNNY     83  67  57 S5        29.81F
DODGE CENTER   SUNNY     81  70  69 S7        29.86F
WINONA         SUNNY     82  64  54 CALM      29.85F
AUSTIN         SUNNY     82  64  54 SW6       29.86F
PRESTON        SUNNY     81  66  59 SW3       29.89F
$$
ABBREVIATIONS USED IN REMARKS
   TC - TEMPERATURES IN CELSIUS
  WCI - WIND CHILL INDEX
   HX - HEAT INDEX
  VSB - VISIBILITY
$$


USA.gov is the U.S. government's official web portal to all federal, state and local government web resources and services.